Tracking 30995 objects as of 7-Jul-2025
HD Live streaming from Space Station
objects crossing your sky now

ONEWEB-0517

Track ONEWEB-0517 now!
10-day predictions
ONEWEB-0517 is classified as:


NORAD ID: 54135
Int'l Code: 2022-138Y
Perigee: 1,191.7 km
Apogee: 1,194.1 km
Inclination: 87.9 °
Period: 109.1 minutes
Semi major axis: 7563 km
RCS: Unknown
Launch date: October 22, 2022
Source: United Kingdom (UK)
Launch site: SRIHARIKOTA (SRI)
Your satellite tracking list
Your tracking list is empty




NASA's NSSDC Master Catalog

Two Line Element Set (TLE):
1 54135U 22138Y   25187.55373814  .00000047  00000-0  85836-4 0  9998
2 54135  87.9210  13.6612 0001609  97.8992 262.2323 13.19724112131248
Source of the keplerian elements: AFSPC